カタログに戻る

FREGAT DEB

運用中UNKNOWN
NORAD 45841·DEBRIS·🇷🇺 Russia

打ち上げ Jul 18, 2011 から Baikonur Cosmodrome

Loading…

次のパス (今後24時間)

TLE

最新Source: Space-Track

元期: Sep 13, 2026, 17:08 UTC

1 45841U 11037CB  26256.71440541  .00000374  00000-0  71673-3 0  9992
2 45841  51.5213  26.7341 1929010 215.3938 130.2437 10.59841665242897

AllMySatでFREGAT DEBをリアルタイム追跡

Download on the App Store